[[{"header":{"parameterUnit":"m.s-1","parameterCategory":1,"la1":30.2991,"la2":30.254,"lo1":-89.0895,"lo2":-89.0444,"dy":0.0017,"dx":0.0017,"nx":28,"ny":28,"refTime":"2024-04-28T09:00:00:Z","depth":0,"parameterNumber":2,"parameterNumberName":"U-component_of_WINDS"},"data":[0,0,0,0,0,0,0,0,0,0,0,0,0,0,0,0,0,0,0,0,0,0,0,0,0,0,0,0,0,0,0,0,0,0,0,0,0,0,0,0,0,0,0,0,0,0,0,0,0,0,0,0,0,0,0,0,0,0,-8.0096,-8.0097,0,-8.0151,-8.0152,-8.0152,-8.0055,-8.0052,-8.0049,-8.0045,-8.0099,-8.0104,-8.0108,0,0,0,0,0,0,0,0,0,0,0,0,0,-7.9905,-7.9909,-8.0096,-8.0097,-8.0097,-8.0151,-8.0152,-8.0153,-8.0056,-8.0052,-8.0048,-8.0044,-8.0098,-8.0103,-8.0109,0,0,0,0,0,0,0,0,0,0,0,0,0,-7.9977,-7.991,-8.0096,-8.0055,-8.0052,-8.0151,-8.0152,-8.0153,-8.0057,-8.0052,-8.0047,-8.0042,-8.0096,-8.0103,-8.0109,-8.0249,0,0,-8.013,-8.0133,0,0,0,0,0,0,0,0,-7.9973,-7.9984,-8.0061,-8.0058,-8.0055,-8.0091,-8.0104,-8.0185,-8.0058,-8.0055,-8.0045,-8.004,-8.01,-8.0107,-8.0128,-8.0251,-8.0254,-8.013,-8.0134,-8.0137,-8.0139,0,0,0,0,0,0,0,-7.9968,-7.9981,-8.0118,-8.0062,-8.0059,-8.0034,-8.0039,-8.0119,-8.0104,-8.0055,-8.0048,-8.0056,-8.0098,-8.0121,-8.0128,-8.0254,-8.013,-8.0136,-8.014,-8.0143,-8.0495,-8.05,0,0,0,0,0,0,-7.9968,-7.9977,-8.0116,-8.0119,-8.0001,-8.0042,-8.0047,-8.0085,-8.0103,-8.0101,-8.006,-8.0051,-8.0112,-8.012,-8.013,-8.0292,-8.0137,-8.0144,-8.0147,-8.049,-8.0496,-8.0502,0,0,0,0,0,0,-7.9965,-7.9982,-8.0114,-8.0047,-8.0062,-8.005,-8.0093,-8.0088,-8.0111,-8.0107,-8.0104,-8.0087,-8.0109,-8.012,-8.022,-8.0293,-8.0147,-8.0153,-8.0484,-8.0492,-8.0499,-8.062,0,0,0,0,0,0,-7.996,-7.9981,-8.0034,-8.0049,-8.0066,-8.0204,-8.0098,-8.0093,-8.0124,-8.0112,-8.0131,-8.013,-8.0106,-8.021,-8.0227,-8.0299,-8.0158,-8.0477,-8.0487,-8.0497,-8.0609,-8.0631,-8.065,0,0,0,0,0,-7.9953,-8.0065,-8.0037,-8.0054,-8.0132,-8.0208,-8.0217,-8.0188,-8.013,-8.0182,-8.018,-8.0129,-8.0284,-8.0222,-8.0239,-8.0315,-8.0472,-8.0484,-8.0496,-8.06,-8.0627,-8.065,0,0,0,0,0,0,-8.0057,-8.0066,-8.0035,-8.0155,-8.0182,-8.0191,-8.0256,-8.0218,-8.026,-8.0248,-8.021,-8.0215,-8.0322,-8.0329,-8.026,-8.0451,-8.0368,-8.0384,-8.0441,-8.0467,-8.0487,-8.048,-8.0164,0,0,0,0,0,-8.0095,-8.0157,-8.0161,-8.0267,-8.0282,-8.0268,-8.03,-8.0276,-8.0301,-8.0311,-8.0316,-8.0342,-8.0397,-8.0433,-8.0483,-8.0612,-8.0614,-8.0673,-8.0694,-8.071,-8.0723,-8.079,-8.0816,-8.0541,-8.0541,-8.0541,0,0,-8.0171,-8.0184,-8.0225,-8.0288,-8.0306,-8.037,-8.0277,-8.0349,-8.0396,-8.0322,-8.0415,-8.0421,-8.0448,-8.0563,-8.0614,-8.0572,-8.08,-8.0725,-8.0739,-8.0742,-8.0805,-8.0831,-8.0855,-8.0549,-8.0548,-8.0547,0,0,-8.0343,-8.0361,-8.045,-8.047,-8.0499,-8.0489,-8.0511,-8.0528,-8.0528,-8.0623,-8.0568,-8.0624,-8.0719,-8.074,-8.0763,-8.0947,-8.0901,-8.0965,-8.1068,-8.1135,-8.1157,-8.1175,-8.1238,-8.1262,-8.0979,-8.0979,-8.0979,0,-8.0434,-8.0529,-8.05,-8.0576,-8.0605,-8.0544,-8.0633,-8.0654,-8.0698,-8.0719,-8.0672,-8.079,-8.0804,-8.0922,-8.0968,-8.099,-8.1012,-8.096,-8.1156,-8.1175,-8.1192,-8.1251,-8.1275,-8.0986,-8.0986,-8.0985,-8.0984,0,-8.0639,-8.0706,-8.0775,-8.0819,-8.0856,-8.0939,-8.0922,-8.0963,-8.0938,-8.0933,-8.103,-8.1045,-8.1097,-8.1124,-8.1099,-8.124,-8.1212,-8.1163,-8.1077,-8.1226,-8.1281,-8.1304,-8.0997,-8.0994,-8.0992,-8.099,0,0,-8.0872,-8.0902,-8.0928,-8.0947,-8.0976,-8.1027,-8.1108,-8.1159,-8.1194,-8.1228,-8.1293,-8.1376,-8.133,-8.1357,-8.1335,-8.1394,-8.1536,-8.1336,-8.1336,-8.1369,-8.1689,-8.1723,-8.175,-8.1508,-8.1512,-8.1516,-8.1685,0,-8.104,-8.1178,-8.1156,-8.1289,-8.135,-8.1295,-8.1365,-8.1391,-8.139,-8.1441,-8.144,-8.1498,-8.1435,-8.145,-8.1507,-8.1507,-8.1599,-8.1495,-8.1565,-8.1568,-8.1555,-8.1779,-8.1815,-8.1974,-8.1707,-8.1711,-8.1713,0,-8.1253,-8.1296,-8.1435,-8.1455,-8.148,-8.1543,-8.1589,-8.164,-8.1668,-8.1663,-8.1695,-8.1662,-8.1742,-8.166,-8.1769,-8.1699,-8.1727,-8.1732,-8.1737,-8.1739,-8.1646,-8.1782,-8.2025,-8.2047,-8.1748,-8.1745,-8.1742,0,-8.1405,-8.1498,-8.1593,-8.1612,-8.1639,-8.1684,-8.1697,-8.1721,-8.1754,-8.1795,-8.1815,-8.1865,-8.1891,-8.1931,-8.1912,-8.1855,-8.2024,-8.1941,-8.202,-8.202,-8.2053,-8.205,-8.2299,-8.208,-8.208,-8.2079,-8.2079,0,-8.1592,-8.1679,-8.1661,-8.1719,-8.1815,-8.179,-8.1886,-8.1892,-8.1914,-8.1972,-8.193,-8.1985,-8.196,-8.2013,-8.2,-8.2091,-8.2104,-8.2101,-8.2096,-8.2102,-8.2102,-8.2116,-8.2103,-8.2086,-8.2084,-8.2083,-8.2082,0,-8.1776,-8.1768,-8.1867,-8.1886,-8.1893,-8.1962,-8.1977,-8.2032,-8.203,-8.2104,-8.212,-8.2115,-8.2177,-8.2164,-8.2231,-8.2222,-8.2335,-8.2318,-8.2325,-8.2319,-8.2398,-8.2389,-8.266,-8.2693,-8.2458,-8.246,-8.2462,0,-8.1893,-8.1958,-8.1985,-8.2021,-8.2038,-8.2097,-8.2131,-8.211,-8.2147,-8.2186,-8.2235,-8.2293,-8.2337,-8.2438,-8.244,-8.2492,-8.2473,-8.2565,-8.248,-8.2484,-8.247,-8.2464,-8.2469,-8.2579,-8.2582,-8.2584,-8.2586,0,-8.2101,-8.2095,-8.2145,-8.2196,-8.2238,-8.2276,-8.231,-8.2342,-8.2325,-8.2368,-8.2431,-8.2466,-8.2536,-8.2593,-8.2641,-8.2654,-8.2617,-8.2614,-8.2634,-8.2639,-8.2639,-8.2636,-8.2366,-8.2606,-8.2604,-8.2603,-8.2602,-8.2601,-8.2252,-8.2307,-8.2335,-8.2393,-8.2417,-8.2451,-8.2502,-8.2508,-8.256,-8.2615,-8.26,-8.2671,-8.2699,-8.276,-8.2779,-8.2834,-8.2799,-8.2829,-8.2836,-8.2843,-8.2851,-8.2635,-8.2843,-8.2842,-8.2842,-8.2841,-8.2841,0,-8.2454,-8.247,-8.2525,-8.2574,-8.262,-8.2585,-8.2622,-8.2662,-8.2725,-8.2755,-8.28,-8.2872,-8.2928,-8.2937,-8.299,-8.3032,-8.3016,-8.3046,-8.304,-8.3044,-8.288,-8.2855,-8.3058,-8.3058,-8.3058,-8.3058,-8.3058,-8.3058,-8.2565,-8.2656,-8.2654,-8.2757,-8.2772,-8.2841,-8.2865,-8.2896,-8.2919,-8.3002,-8.3048,-8.3055,-8.3076,-8.3131,-8.318,-8.3182,-8.3201,-8.3237,-8.3231,-8.3077,-8.3055,-8.3034,-8.3011,-8.3243,-8.3243,-8.339,-8.3391,-8.3392]},{"header":{"parameterUnit":"m.s-1","parameterCategory":1,"la1":30.2991,"la2":30.254,"lo1":-89.0895,"lo2":-89.0444,"dy":0.0017,"dx":0.0017,"nx":28,"ny":28,"refTime":"2024-04-28T09:00:00:Z","depth":0,"parameterNumber":3,"parameterNumberName":"V-component_of_WINDS"},"data":[0,0,0,0,0,0,0,0,0,0,0,0,0,0,0,0,0,0,0,0,0,0,0,0,0,0,0,0,0,0,0,0,0,0,0,0,0,0,0,0,0,0,0,0,0,0,0,0,0,0,0,0,0,0,0,0,0,0,3.7476,3.7476,0,3.7507,3.7508,3.7508,3.7495,3.7494,3.7493,3.7492,3.7522,3.7523,3.7525,0,0,0,0,0,0,0,0,0,0,0,0,0,3.7404,3.7405,3.7476,3.7476,3.7477,3.7507,3.7508,3.7508,3.7495,3.7494,3.7493,3.7492,3.7521,3.7523,3.7525,0,0,0,0,0,0,0,0,0,0,0,0,0,3.7435,3.7405,3.7476,3.7474,3.7474,3.7507,3.7508,3.7508,3.7495,3.7494,3.7493,3.7492,3.7521,3.7523,3.7525,3.7561,0,0,3.7532,3.7533,0,0,0,0,0,0,0,0,3.7433,3.7438,3.7474,3.7474,3.7474,3.7496,3.7493,3.7526,3.7495,3.7487,3.7492,3.7491,3.7514,3.7517,3.7525,3.7563,3.7564,3.7532,3.7533,3.7534,3.7535,0,0,0,0,0,0,0,3.7431,3.7436,3.7488,3.7474,3.7475,3.7471,3.7474,3.7499,3.7506,3.7487,3.7487,3.7491,3.7514,3.7523,3.7525,3.7565,3.7532,3.7534,3.7535,3.7536,3.7636,3.7638,0,0,0,0,0,0,3.7429,3.7434,3.7487,3.7489,3.7451,3.7473,3.7477,3.749,3.7506,3.7507,3.7492,3.749,3.752,3.7523,3.7526,3.7572,3.7534,3.7536,3.7538,3.7635,3.7637,3.7638,0,0,0,0,0,0,3.7428,3.7434,3.7486,3.7462,3.7468,3.7476,3.7491,3.7491,3.75,3.7509,3.751,3.75,3.7519,3.7523,3.7554,3.7572,3.7537,3.7539,3.7634,3.7636,3.7637,3.7661,0,0,0,0,0,0,3.7426,3.7433,3.7447,3.7462,3.7469,3.7513,3.7492,3.7493,3.7505,3.7503,3.7517,3.7518,3.7518,3.755,3.7556,3.7575,3.7541,3.7632,3.7634,3.7637,3.7659,3.7664,3.7668,0,0,0,0,0,3.7423,3.7452,3.7448,3.7454,3.7487,3.7514,3.7518,3.7518,3.7506,3.752,3.7526,3.7518,3.757,3.7554,3.756,3.758,3.7631,3.7634,3.7637,3.7657,3.7663,3.7668,0,0,0,0,0,0,3.7437,3.7453,3.745,3.7484,3.7498,3.7512,3.7529,3.7525,3.7541,3.7539,3.7538,3.7541,3.7573,3.7579,3.7561,3.7617,3.7598,3.7603,3.7611,3.7617,3.7622,3.762,3.7543,0,0,0,0,0,3.7444,3.7465,3.7478,3.7507,3.7515,3.7521,3.7533,3.7532,3.7546,3.7552,3.756,3.7573,3.7593,3.7605,3.7624,3.766,3.7664,3.7677,3.7682,3.7685,3.7689,3.771,3.7717,3.7648,3.7648,3.7648,0,0,3.7459,3.7471,3.7483,3.7511,3.7521,3.7543,3.7526,3.7549,3.7565,3.7555,3.7584,3.7591,3.7606,3.764,3.7656,3.7646,3.7709,3.7689,3.7692,3.7694,3.7714,3.7721,3.7726,3.765,3.765,3.7649,0,0,3.7497,3.7508,3.7534,3.7546,3.7563,3.7568,3.7575,3.759,3.7594,3.7625,3.7618,3.7637,3.767,3.7682,3.7692,3.7739,3.7731,3.7744,3.7768,3.7789,3.7795,3.78,3.7817,3.7823,3.7748,3.7748,3.7748,0,3.7512,3.7546,3.7548,3.7573,3.7585,3.7579,3.7606,3.7617,3.7639,3.7648,3.7638,3.7682,3.7691,3.7728,3.774,3.7748,3.7756,3.7742,3.7794,3.7799,3.7803,3.782,3.7826,3.775,3.7749,3.7749,3.7749,0,3.7565,3.7589,3.7608,3.7632,3.7646,3.7672,3.7678,3.7693,3.7692,3.7698,3.773,3.7741,3.7763,3.7772,3.777,3.781,3.7804,3.7794,3.7775,3.7811,3.7827,3.7833,3.7752,3.7751,3.7751,3.775,0,0,3.761,3.7638,3.7644,3.7656,3.7676,3.7694,3.7721,3.7743,3.7757,3.7773,3.7795,3.7825,3.7817,3.7828,3.7828,3.7847,3.7884,3.7835,3.7835,3.7844,3.793,3.7938,3.7945,3.788,3.7882,3.7882,3.7929,0,3.7651,3.7698,3.7702,3.7744,3.7767,3.7762,3.7785,3.78,3.7807,3.7827,3.7834,3.7856,3.7843,3.785,3.7868,3.7876,3.7902,3.7873,3.7901,3.7902,3.7897,3.7953,3.796,3.8004,3.7935,3.7936,3.7937,0,3.7703,3.7724,3.7769,3.7788,3.7798,3.7819,3.7841,3.786,3.7878,3.7881,3.7896,3.7894,3.7922,3.7903,3.7941,3.7921,3.7933,3.7939,3.7941,3.7943,3.7921,3.7957,3.8018,3.8024,3.7946,3.7946,3.7945,0,3.7733,3.7772,3.7804,3.7814,3.7837,3.7853,3.7863,3.7879,3.7894,3.7913,3.7922,3.7944,3.7956,3.7973,3.7978,3.7963,3.8016,3.7997,3.802,3.802,3.8031,3.803,3.8094,3.8038,3.8038,3.8038,3.8038,0,3.7778,3.7806,3.7818,3.7838,3.787,3.7875,3.7906,3.7915,3.793,3.7952,3.7949,3.797,3.7974,3.7996,3.7999,3.8031,3.8036,3.804,3.804,3.804,3.804,3.8048,3.8045,3.804,3.8039,3.8039,3.8039,0,3.7816,3.7826,3.7861,3.7882,3.7887,3.791,3.7927,3.7947,3.7954,3.7982,3.7989,3.8,3.8025,3.8032,3.8061,3.8064,3.8101,3.8099,3.8096,3.8096,3.8119,3.8117,3.819,3.82,3.8138,3.8138,3.8139,0,3.7844,3.7866,3.789,3.7905,3.7917,3.7941,3.7956,3.7962,3.7978,3.8002,3.8018,3.8044,3.8064,3.8105,3.8115,3.8139,3.8137,3.8161,3.814,3.814,3.8138,3.8137,3.8139,3.8165,3.8165,3.8166,3.8166,0,3.7893,3.7897,3.792,3.7946,3.7965,3.7984,3.8003,3.8016,3.8025,3.8043,3.807,3.8086,3.8118,3.8143,3.8167,3.8177,3.8174,3.8173,3.818,3.818,3.8178,3.818,3.8107,3.8171,3.8171,3.817,3.817,3.817,3.7927,3.7947,3.7968,3.7994,3.801,3.8028,3.8048,3.806,3.8083,3.811,3.8112,3.8142,3.816,3.8192,3.8204,3.8227,3.822,3.8229,3.8231,3.8234,3.8236,3.8174,3.8231,3.8231,3.8231,3.8231,3.8231,0,3.7976,3.799,3.8015,3.8043,3.8064,3.8061,3.8082,3.81,3.8126,3.8145,3.8166,3.8198,3.8223,3.8237,3.8262,3.8278,3.8277,3.8284,3.8283,3.8286,3.8241,3.8233,3.8285,3.8285,3.8285,3.8285,3.8285,3.8285,3.8005,3.8039,3.8047,3.8089,3.8103,3.8133,3.8146,3.8163,3.8178,3.8214,3.8236,3.8246,3.8262,3.8289,3.8313,3.8316,3.8326,3.8334,3.8337,3.8294,3.8289,3.8283,3.8276,3.8336,3.8336,3.838,3.838,3.838]}]]